Lake Tohopekaliga Weather Center

Moon Phase Calendar



Lake Tohopekaliga Water Level
Online Cameras

 


      

Current Conditions in Campbell
11/28/2022 1:06:46 AM

70°F
Feels Like 70
Clouds
Humidity
90%
Pressure
30"
Wind
5.8 mph (WNW)
Dew Point
67°F
UV Index
0/10 (Low)
Visibility
6 mi

Hourly Forecast

Date & Time Mon, Nov 28
1:00 AM
Mon, Nov 28
2:00 AM
Mon, Nov 28
3:00 AM
Mon, Nov 28
4:00 AM
Mon, Nov 28
5:00 AM
Mon, Nov 28
6:00 AM
Mon, Nov 28
7:00 AM
Mon, Nov 28
8:00 AM
Mon, Nov 28
9:00 AM
Mon, Nov 28
10:00 AM
Mon, Nov 28
11:00 AM
Mon, Nov 28
12:00 PM
Mon, Nov 28
1:00 PM
Mon, Nov 28
2:00 PM
Mon, Nov 28
3:00 PM
Mon, Nov 28
4:00 PM
Mon, Nov 28
5:00 PM
Mon, Nov 28
6:00 PM
Mon, Nov 28
7:00 PM
Mon, Nov 28
8:00 PM
Mon, Nov 28
9:00 PM
Mon, Nov 28
10:00 PM
Mon, Nov 28
11:00 PM
Tue, Nov 29
12:00 AM
Tue, Nov 29
1:00 AM
Tue, Nov 29
2:00 AM
Tue, Nov 29
3:00 AM
Tue, Nov 29
4:00 AM
Tue, Nov 29
5:00 AM
Tue, Nov 29
6:00 AM
Tue, Nov 29
7:00 AM
Tue, Nov 29
8:00 AM
Tue, Nov 29
9:00 AM
Tue, Nov 29
10:00 AM
Tue, Nov 29
11:00 AM
Tue, Nov 29
12:00 PM
Tue, Nov 29
1:00 PM
Tue, Nov 29
2:00 PM
Tue, Nov 29
3:00 PM
Tue, Nov 29
4:00 PM
Tue, Nov 29
5:00 PM
Tue, Nov 29
6:00 PM
Tue, Nov 29
7:00 PM
Tue, Nov 29
8:00 PM
Tue, Nov 29
9:00 PM
Tue, Nov 29
10:00 PM
Tue, Nov 29
11:00 PM
Wed, Nov 30
12:00 AM
Condition
Clouds

Clouds

Clouds

Clouds

Clouds

Clouds

Clouds

Clouds

Clouds

Clouds

Clouds

Clouds

Clouds

Clouds

Clouds

Clouds

Clouds

Clouds

Clouds

Clouds

Clouds

Clouds

Clouds

Clouds

Clouds

Clear

Clear

Clear

Clear

Clear

Clear

Clear

Clear

Clear

Clear

Clear

Clear

Clear

Clear

Clear

Clear

Clear

Clear

Clear

Clear

Clear

Clear

Clear
Temperature 70°F69°F69°F68°F67°F66°F65°F66°F69°F71°F73°F75°F77°F77°F77°F76°F73°F71°F69°F68°F67°F66°F65°F64°F63°F62°F62°F61°F61°F61°F61°F63°F69°F73°F76°F78°F79°F79°F78°F76°F72°F69°F68°F67°F66°F66°F66°F65°F
Feels Like 70°F70°F69°F68°F67°F65°F64°F65°F68°F70°F72°F74°F76°F76°F76°F76°F72°F69°F68°F67°F66°F64°F63°F62°F62°F61°F60°F60°F60°F59°F59°F62°F68°F73°F76°F78°F79°F79°F78°F76°F73°F69°F68°F67°F66°F66°F66°F66°F
Cloudiness 75%67%58%59%59%61%68%100%100%100%100%100%100%100%100%100%100%100%98%82%80%56%43%35%29%0%0%0%0%0%0%0%0%0%0%0%0%0%0%0%0%0%0%0%0%0%0%0%
Visibility 6 mi6 mi6 mi6 mi6 mi6 mi6 mi6 mi6 mi6 mi6 mi6 mi6 mi6 mi6 mi6 mi6 mi6 mi6 mi6 mi6 mi6 mi6 mi6 mi6 mi6 mi6 mi6 mi6 mi6 mi6 mi6 mi6 mi6 mi6 mi6 mi6 mi6 mi6 mi6 mi6 mi6 mi6 mi6 mi6 mi6 mi6 mi6 mi
Precipitation 0%0%0%0%0%0%0%0%0%0%0%0%0%0%0%0%0%0%0%0%0%0%0%0%0%0%0%0%0%0%0%0%0%0%0%0%0%0%0%0%0%0%0%0%0%0%0%0%
Humidity 90%91%89%85%78%69%64%63%51%43%38%34%32%32%33%39%45%43%44%45%46%49%51%53%55%57%59%61%63%65%68%69%62%56%50%46%45%47%50%57%66%73%78%82%84%86%88%88%
Dew Point 67°F67°F65°F63°F60°F55°F52°F53°F50°F48°F46°F45°F45°F45°F46°F50°F50°F47°F46°F46°F46°F46°F46°F46°F46°F47°F47°F48°F48°F49°F50°F53°F55°F57°F56°F56°F56°F57°F58°F60°F60°F60°F60°F61°F61°F61°F62°F62°F
Pressure 30"30"30"29.97"30"30"30.03"30.06"30.06"30.09"30.09"30.06"30.03"30.03"30"30"30.03"30.03"30.06"30.06"30.09"30.09"30.09"30.09"30.09"30.09"30.09"30.09"30.09"30.12"30.12"30.15"30.15"30.18"30.15"30.15"30.12"30.09"30.09"30.09"30.09"30.12"30.12"30.15"30.15"30.15"30.15"30.12"
Wind Speed 6 mph5.8 mph5.2 mph4.9 mph5.2 mph5.6 mph5.4 mph4.7 mph6.1 mph5.7 mph4.4 mph4.7 mph4.3 mph3.4 mph2.7 mph1.8 mph1.5 mph1.2 mph1.9 mph2.4 mph2.5 mph3 mph3.6 mph3.8 mph3.9 mph4.4 mph4.6 mph4.9 mph5.2 mph5.4 mph5.6 mph5.4 mph6.7 mph8.8 mph10.4 mph10.7 mph10.8 mph11 mph11.3 mph10.5 mph10.3 mph8.4 mph7.6 mph7.1 mph6.9 mph6.7 mph6.4 mph6.4 mph
Wind
Direction
302°
WNW
308°
NW
309°
NW
311°
NW
316°
NW
327°
NNW
335°
NNW
342°
NNW
348°
NNW
352°
N
353°
N
337°
NNW
327°
NNW
315°
NW
303°
WNW
279°
W
291°
WNW
313°
NW
349°
N
16°
NNE
38°
NE
51°
NE
52°
NE
56°
NE
73°
ENE
74°
ENE
73°
ENE
71°
ENE
68°
ENE
73°
ENE
76°
ENE
76°
ENE
84°
E
92°
E
99°
E
101°
E
100°
E
98°
E
95°
E
92°
E
91°
E
86°
E
85°
E
83°
E
84°
E
90°
E
96°
E
102°
ESE

Daily Forecast

Date High Low Precip. Humidity
Today
Nov 28

Clouds
77 °F
65 °F
0%
34%
Tuesday
Nov 29

Clear
79 °F
61 °F
0%
46%
Wednesday
Nov 30

Clear
82 °F
64 °F
20%
57%
Thursday
Dec 1

Clouds
73 °F
68 °F
7%
70%
Friday
Dec 2

Clouds
76 °F
67 °F
5%
60%
Saturday
Dec 3

Clear
78 °F
63 °F
0%
49%
Sunday
Dec 4

Clear
80 °F
63 °F
0%
52%
Monday
Dec 5

Clear
80 °F
64 °F
0%
46%
Tuesday
Dec 6

Clear
81 °F
63 °F
0%
50%
Wednesday
Dec 7

Clear
82 °F
64 °F
0%
42%
Thursday
Dec 8

Clouds
68 °F
61 °F
3%
48%
Friday
Dec 9

Clouds
75 °F
62 °F
2%
65%
Saturday
Dec 10

Clouds
78 °F
65 °F
0%
56%
Sunday
Dec 11

Clouds
78 °F
64 °F
0%
61%
Monday
Dec 12

Clouds
70 °F
61 °F
0%
57%
Tuesday
Dec 13

Clouds
54 °F
43 °F
0%
21%

Temperature 8-14 Day Outlook



Precipitation 8-14 Day Outlook




Quick Links
Lake Tohopekaliga News
Lake Tohopekaliga Photos
Lake Tohopekaliga Videos




About Us
Contact Us
Site Map
Search Site
Advertise With Us
   
Tohopekaliga.USLakes.info
THE LAKE TOHOPEKALIGA WEBSITE

Copyright 2022, Lakes Online
Privacy    |    Legal